| time (UTC) | temp F | wind direction | speed MPH | gust MPH | rain 1hr in | rain 24hr in | rain mn in | humidity % | barometer mb |
| 20260504184549 | 68 | 288 | 8.0 | 28.0 | 0.00 | 0.00 | 0.00 | 40 | 1005.4 |
| 20260504183038 | 68 | 250 | 4.0 | 14.0 | 0.00 | 0.00 | 0.00 | 41 | 1005.5 |
| 20260504181538 | 68 | 266 | 4.0 | 14.0 | 0.00 | 0.00 | 0.00 | 42 | 1005.7 |
| 20260504180043 | 68 | 297 | 5.0 | 15.0 | 0.00 | 0.00 | 0.00 | 44 | 1005.8 |
| 20260504174538 | 67 | 282 | 5.0 | 15.0 | 0.00 | 0.00 | 0.00 | 45 | 1005.8 |
| 20260504173038 | 67 | 184 | 4.0 | 15.0 | 0.00 | 0.00 | 0.00 | 46 | 1005.8 |
| 20260504171541 | 66 | 261 | 6.0 | 19.0 | 0.00 | 0.00 | 0.00 | 45 | 1005.8 |
| 20260504081542 | 49 | 191 | 4.0 | 12.0 | 0.00 | 0.00 | 0.00 | 56 | 1008.0 |
| 20260504044537 | 49 | 250 | 5.0 | 11.0 | 0.00 | 0.00 | 0.00 | 57 | 1009.1 |
| 20260504043040 | 49 | 223 | 2.0 | 11.0 | 0.00 | 0.00 | 0.00 | 58 | 1009.2 |
| 20260504041541 | 49 | 207 | 1.0 | 10.0 | 0.00 | 0.00 | 0.00 | 58 | 1009.2 |
| 20260504040041 | 49 | 207 | 2.0 | 8.0 | 0.00 | 0.00 | 0.00 | 59 | 1009.2 |
| 20260504034543 | 50 | 300 | 2.0 | 11.0 | 0.00 | 0.00 | 0.00 | 57 | 1009.2 |
| 20260504033050 | 50 | 243 | 2.0 | 10.0 | 0.00 | 0.00 | 0.00 | 57 | 1009.2 |
| 20260504031538 | 50 | 239 | 0.0 | 6.0 | 0.00 | 0.00 | 0.00 | 56 | 1009.2 |
| 20260504030106 | 51 | 231 | 2.0 | 11.0 | 0.00 | 0.00 | 0.00 | 55 | 1009.2 |
| 20260504024544 | 51 | 226 | 4.0 | 12.0 | 0.00 | 0.00 | 0.00 | 54 | 1009.2 |
| 20260504023038 | 52 | 191 | 2.0 | 9.0 | 0.00 | 0.00 | 0.00 | 53 | 1009.3 |
| 20260504021537 | 52 | 231 | 4.0 | 13.0 | 0.00 | 0.00 | 0.00 | 53 | 1009.5 |
| 20260504020037 | 52 | 194 | 4.0 | 13.0 | 0.00 | 0.00 | 0.00 | 52 | 1009.7 |
| 20260504014539 | 52 | 213 | 5.0 | 15.0 | 0.00 | 0.00 | 0.00 | 52 | 1009.5 |
| 20260504013041 | 52 | 238 | 5.0 | 12.0 | 0.00 | 0.00 | 0.00 | 52 | 1009.7 |
| 20260504011538 | 52 | 239 | 4.0 | 13.0 | 0.00 | 0.00 | 0.00 | 50 | 1009.7 |
| 20260504010040 | 52 | 0 | 3.0 | 17.0 | 0.00 | 0.00 | 0.00 | 49 | 1009.4 |
| 20260504004540 | 52 | 169 | 4.0 | 15.0 | 0.00 | 0.00 | 0.00 | 50 | 1009.5 |
| 20260504003042 | 52 | 215 | 6.0 | 25.0 | 0.00 | 0.00 | 0.00 | 52 | 1009.9 |
| 20260504001537 | 53 | 265 | 5.0 | 17.0 | 0.00 | 0.00 | 0.00 | 48 | 1009.8 |
| 20260504000047 | 53 | 246 | 5.0 | 24.0 | 0.00 | 0.00 | 0.00 | 47 | 1009.8 |
| 20260503234540 | 52 | 217 | 6.0 | 14.0 | 0.00 | 0.00 | 0.00 | 47 | 1009.6 |
| 20260503233040 | 52 | 230 | 7.0 | 19.0 | 0.00 | 0.00 | 0.00 | 47 | 1009.4 |
| 20260503231538 | 52 | 275 | 6.0 | 15.0 | 0.00 | 0.00 | 0.00 | 47 | 1009.5 |
| 20260503230038 | 53 | 316 | 8.0 | 27.0 | 0.00 | 0.00 | 0.00 | 46 | 1009.8 |
| 20260503224537 | 53 | 272 | 5.0 | 16.0 | 0.00 | 0.00 | 0.00 | 46 | 1010.0 |
| 20260503223041 | 53 | 194 | 7.0 | 21.0 | 0.00 | 0.00 | 0.00 | 47 | 1009.5 |
| 20260503221541 | 54 | 252 | 7.0 | 20.0 | 0.00 | 0.00 | 0.00 | 43 | 1009.4 |
| 20260503220038 | 55 | 238 | 7.0 | 17.0 | 0.00 | 0.00 | 0.00 | 42 | 1009.3 |
| 20260503214538 | 55 | 303 | 4.0 | 14.0 | 0.00 | 0.00 | 0.00 | 42 | 1009.3 |
| 20260503213037 | 56 | 306 | 4.0 | 19.0 | 0.00 | 0.00 | 0.00 | 42 | 1009.2 |
| 20260503211537 | 56 | 289 | 6.0 | 19.0 | 0.00 | 0.00 | 0.00 | 41 | 1009.0 |
| 20260503210040 | 56 | 240 | 6.0 | 21.0 | 0.00 | 0.00 | 0.00 | 42 | 1008.9 |
| 20260503204543 | 56 | 207 | 6.0 | 18.0 | 0.00 | 0.00 | 0.00 | 39 | 1009.0 |
| 20260503203043 | 56 | 273 | 4.0 | 14.0 | 0.00 | 0.00 | 0.00 | 42 | 1009.2 |
| 20260503201539 | 56 | 312 | 5.0 | 16.0 | 0.00 | 0.00 | 0.00 | 39 | 1009.3 |
| 20260503200038 | 55 | 260 | 4.0 | 13.0 | 0.00 | 0.00 | 0.00 | 41 | 1009.4 |
| 20260503194538 | 54 | 248 | 8.0 | 17.0 | 0.00 | 0.00 | 0.00 | 41 | 1009.7 |
| 20260503193042 | 54 | 244 | 5.0 | 12.0 | 0.00 | 0.00 | 0.00 | 42 | 1009.9 |
| 20260503191539 | 53 | 272 | 3.0 | 11.0 | 0.00 | 0.00 | 0.00 | 44 | 1010.0 |
| 20260503190038 | 53 | 259 | 4.0 | 15.0 | 0.00 | 0.00 | 0.00 | 42 | 1010.3 |